This is the latest recevied weather packets stored in our database for station/object KD7AWQ. If no packets are shown the sender has not sent any weather packets the latest 10 day(s).
| Time | Temp. | Humidity | Pressure | Rain* | Wind** | Luminosity | Snow |
|---|---|---|---|---|---|---|---|
| 1788252656 | 19.44° C | 67% | 1188.7 hPa | 0 mm | - | 0 W/m² | - |
| 1788252352 | 19.44° C | 66% | 1188.8 hPa | 0 mm | - | 0 W/m² | - |
| 1788252049 | 20° C | 62% | 1188.7 hPa | 0 mm | - | 0 W/m² | - |
| 1788251748 | 20.56° C | 61% | 1188.7 hPa | 0 mm | - | 0 W/m² | - |
| 1788251446 | 20.56° C | 62% | 1188.9 hPa | 0 mm | - | 0 W/m² | - |
| 1788251141 | 20.56° C | 61% | 1188.9 hPa | 0 mm | - | 0 W/m² | - |
| 1788250836 | 21.11° C | 60% | 1189 hPa | 0 mm | - | 0 W/m² | - |
| 1788250526 | 21.11° C | 58% | 1188.7 hPa | 0 mm | - | 0 W/m² | - |
| 1788250221 | 21.11° C | 58% | 1188.9 hPa | 0 mm | - | 0 W/m² | - |
| 1788249920 | 21.11° C | 58% | 1188.7 hPa | 0 mm | - | 0 W/m² | - |
| 1788249620 | 21.11° C | 59% | 1188.8 hPa | 0 mm | - | 0 W/m² | - |
| 1788249315 | 21.11° C | 58% | 1189.1 hPa | 0 mm | - | 0 W/m² | - |
| 1788249009 | 21.11° C | 59% | 1188.9 hPa | 0 mm | - | 0 W/m² | - |
| 1788248708 | 21.11° C | 59% | 1188.9 hPa | 0 mm | - | 0 W/m² | - |
| 1788248398 | 21.11° C | 60% | 1189 hPa | 0 mm | - | 0 W/m² | - |
| 1788248095 | 21.67° C | 58% | 1189.2 hPa | 0 mm | - | 0 W/m² | - |
| 1788247795 | 21.11° C | 59% | 1189.3 hPa | 0 mm | - | 0 W/m² | - |
| 1788247490 | 21.11° C | 60% | 1189.2 hPa | 0 mm | - | 0 W/m² | - |
| 1788247185 | 21.11° C | 61% | 1189.1 hPa | 0 mm | - | 0 W/m² | - |
| 1788246884 | 21.11° C | 61% | 1189.2 hPa | 0 mm | - | 0 W/m² | - |
| 1788246583 | 20.56° C | 63% | 1189.2 hPa | 0 mm | - | 0 W/m² | - |
| 1788246279 | 20° C | 66% | 1188.9 hPa | 0 mm | - | 0 W/m² | - |
| 1788245978 | 20° C | 66% | 1189.2 hPa | 0 mm | - | 0 W/m² | - |
| 1788245674 | 20° C | 66% | 1189.1 hPa | 0 mm | - | 0 W/m² | - |
| 1788245368 | 20° C | 68% | 1189.1 hPa | 0 mm | - | 0 W/m² | - |
* Rain latest hour (hover to see other rain measurements)
** Current wind speed in m/s (hover to see current wind gust speed)